Theta_e
308 309 309 301 298 303 291 289 289 293 299 304 307 311 316 323 326 326 331 332 332 334 336 336 339 341 342 341 341 346 347 348
303 307 310 307 303 294 290 290 286 290 293 299 302 305 307 320 324 327 332 333 334 334 336 337 339 341 343 343 342 343 348 347
299 298 299 304 302 295 296 290 290 286 293 301 303 306 307 314 326 329 332 333 334 334 336 337 338 340 342 344 343 343 345 348
292 301 303 305 301 299 294 289 289 290 295 305 307 308 309 310 324 331 333 334 335 335 335 336 336 338 341 343 344 345 346 346
290 294 299 297 299 296 293 293 290 291 295 304 304 307 310 312 313 328 332 334 335 335 334 335 336 337 339 342 345 346 347 347
284 288 294 293 297 300 296 292 291 295 298 300 304 306 311 310 313 323 331 333 334 334 334 335 335 336 338 340 345 347 349 349
289 292 295 296 297 301 297 298 295 297 296 300 302 306 311 311 314 319 328 332 334 334 333 334 335 335 337 339 342 346 348 349
284 293 297 297 302 303 303 301 298 298 298 305 306 310 312 314 318 319 328 332 334 335 334 334 334 335 336 338 340 345 346 348
282 295 297 295 298 303 303 302 300 298 301 307 308 312 315 314 317 317 320 327 334 335 335 335 335 336 335 338 340 343 345 347
283 292 289 298 303 303 306 305 306 307 312 312 318 321 322 325 324 324 324 325 325 326 327 336 338 337 338 338 339 340 341 347
282 289 297 298 299 299 297 301 305 307 316 319 319 320 319 325 328 329 331 332 328 328 328 331 333 337 339 338 339 340 340 342
285 286 289 292 300 306 308 296 306 306 309 312 315 308 310 320 325 325 328 333 337 340 342 335 331 335 341 341 341 340 341 343
287 288 294 296 301 305 294 296 305 307 307 307 305 308 310 314 315 324 325 326 334 340 343 343 338 330 332 339 342 344 345 346
286 286 287 298 299 294 297 301 302 304 304 306 307 308 309 310 311 313 317 324 324 329 337 341 344 345 337 335 337 341 349 348
287 288 295 296 299 304 303 300 301 301 303 303 306 306 308 308 308 310 312 324 324 320 324 335 339 346 347 352 337 340 345 347
288 292 292 294 298 303 300 299 301 301 302 304 303 306 306 307 308 309 310 313 324 323 323 328 336 342 348 353 350 344 341 344
288 290 293 296 297 298 298 301 301 302 301 302 304 305 306 306 307 307 308 309 317 322 321 322 333 337 344 351 352 351 346 343
287 293 293 294 297 300 298 299 300 301 301 301 304 304 306 306 307 307 308 309 310 321 322 324 331 335 340 348 348 346 346 348
293 297 297 301 301 301 299 301 302 302 302 301 305 305 305 306 306 308 307 309 309 317 324 326 328 331 334 341 344 341 341 344
Wind_Speed
19 18 21 9 17 14 4 3 2 5 7 7 9 12 14 27 26 25 29 26 25 25 24 23 23 25 25 23 22 20 20 17
19 10 20 24 8 6 3 16 10 6 6 13 9 11 9 16 27 29 28 28 24 24 25 24 21 23 23 23 24 20 20 17
12 12 14 15 16 5 6 6 10 4 11 8 10 11 11 15 25 26 28 27 27 24 24 25 22 21 22 21 22 20 18 17
14 10 5 7 10 13 9 11 3 5 15 6 12 12 10 14 24 29 28 30 28 26 25 23 23 22 22 21 21 20 19 18
13 3 3 5 5 7 5 6 10 11 16 5 7 7 16 22 20 28 28 28 27 25 24 24 24 21 21 21 21 20 18 18
11 17 17 12 18 9 9 8 7 13 20 9 14 12 17 11 15 20 29 29 28 24 25 23 23 21 20 21 20 19 19 18
20 24 24 24 22 20 14 14 13 11 10 9 10 11 10 7 9 18 23 28 27 26 24 23 22 21 19 19 20 20 20 20
23 21 18 19 18 13 11 16 8 7 8 9 9 7 4 7 11 12 22 28 28 27 27 25 24 21 20 20 21 20 21 21
9 7 10 2 15 10 4 11 7 16 11 3 3 9 13 6 17 13 9 13 24 26 26 22 22 21 21 20 16 18 19 18
9 9 7 10 19 12 18 21 21 15 12 9 15 16 19 18 15 17 17 16 11 7 6 13 14 15 15 14 18 18 17 17
4 4 3 18 22 16 6 14 21 19 8 18 18 26 20 17 16 13 11 9 8 7 7 10 8 7 12 12 14 15 16 17
9 4 3 10 25 24 6 17 19 22 21 18 10 16 5 9 12 14 14 11 10 9 11 10 6 6 9 13 14 17 17 17
9 6 4 21 25 17 12 10 18 14 12 16 16 4 2 9 15 12 11 14 11 12 13 12 8 8 9 6 6 5 4 6
4 3 3 23 12 9 4 11 15 17 16 6 5 7 9 11 13 14 13 14 13 12 11 11 10 11 8 7 1 2 6 9
4 4 3 9 4 9 9 11 14 16 17 17 6 6 7 8 10 11 13 12 11 9 8 9 10 8 13 11 6 4 2 6
11 3 13 19 12 10 11 15 16 14 16 15 17 7 6 8 9 9 10 11 9 12 12 9 8 8 6 8 9 6 4 2
7 4 21 3 6 13 23 19 22 17 11 14 14 10 7 7 7 7 8 11 11 11 12 10 7 6 6 6 6 7 6 6
8 17 14 21 21 21 16 20 22 16 20 12 11 9 7 5 4 6 8 8 9 8 9 12 11 8 5 5 5 5 6 5
12 15 19 23 23 21 21 21 18 16 13 16 7 8 9 4 2 4 7 7 7 8 8 8 10 11 9 6 4 3 4 5
Wind_Direction
212 236 203 216 209 201 168 198 146 222 240 266 230 192 210 209 207 200 203 202 209 197 194 190 186 187 187 188 194 193 192 189
268 235 237 212 164 191 219 226 244 277 221 225 216 241 211 198 199 197 202 204 207 197 193 193 191 190 188 190 193 193 195 198
312 218 225 212 210 226 163 154 215 220 250 214 229 215 207 193 190 201 199 201 202 199 193 194 192 189 191 190 193 193 194 196
259 311 230 255 190 197 202 226 212 186 252 240 212 230 213 217 196 198 196 197 195 196 191 189 193 190 191 191 192 194 194 194
315 89 209 230 212 191 142 137 201 203 249 235 251 236 238 230 181 192 191 192 190 190 189 190 193 193 191 190 194 193 190 193
275 298 305 293 315 245 187 186 176 216 251 290 288 293 292 195 171 169 184 184 186 186 189 189 191 193 192 195 191 189 188 191
268 274 273 264 265 271 209 203 190 216 208 241 254 271 256 173 138 157 175 179 181 183 186 188 189 193 195 194 189 186 189 194
287 263 238 243 249 240 250 206 144 190 243 226 254 292 62 111 109 154 171 177 179 183 184 186 188 192 192 192 192 187 191 198
265 304 286 187 350 11 291 182 154 217 221 123 92 360 5 68 96 97 117 167 183 183 185 187 189 189 192 193 182 189 195 198
266 301 165 120 28 37 64 34 17 356 334 109 108 77 46 30 54 78 84 85 76 86 128 193 193 192 194 178 185 191 192 195
260 284 249 22 5 347 15 38 11 360 96 115 115 74 39 23 33 43 50 57 77 73 74 80 85 156 164 178 192 192 196 197
313 300 27 2 337 329 133 39 11 15 22 20 8 81 7 347 36 37 36 35 44 60 65 66 50 81 148 181 190 201 201 200
292 256 90 354 352 359 59 19 358 8 16 35 53 39 291 35 37 38 40 36 23 42 58 44 36 68 78 114 195 208 194 189
309 2 66 351 9 57 283 344 359 350 0 25 55 43 35 34 31 24 23 35 32 32 35 33 35 45 44 35 322 159 181 177
337 275 51 341 341 269 305 346 354 352 342 347 23 22 40 33 28 19 17 20 30 37 24 23 22 35 31 358 311 299 186 200
322 79 345 318 306 269 332 331 333 333 327 339 351 0 29 39 26 19 10 12 5 22 27 16 7 18 23 22 12 330 292 248
283 284 318 305 333 325 318 314 309 313 312 324 342 353 28 20 24 6 4 3 1 10 6 353 346 2 10 12 25 17 355 322
311 311 281 277 291 293 292 291 290 297 305 311 336 328 331 354 11 14 3 357 354 339 348 340 337 337 5 18 21 10 346 334
305 296 289 277 268 269 268 273 278 279 265 279 297 312 313 295 344 17 4 344 339 313 311 317 317 323 325 337 351 329 287 275